Regional Weather Roundup
Issued by NWS

Home | Current Version | Previous Version | Graphics & Text | Print | Product List | Glossary On
Versions: 1 2 3 4 5 6 7 8 9 10 11 12 13 14 15 16 17 18 19 20 21 22 23 24 25 26 27 28 29 30 31 32 33 34 35 36 37 38 39 40 41 42 43 44 45 46 47 48 49 50
000
ASUS45 KCYS 030910
RWRWY

WYOMING REGIONAL WEATHER ROUNDUP
NATIONAL WEATHER SERVICE CHEYENNE WY
300 AM MDT SUN MAY 03 2015

NOTE:  "FAIR" INDICATES FEW OR NO CLOUDS BELOW 12,000 FEET
WITH NO SIGNIFICANT WEATHER AND/OR OBSTRUCTIONS TO VISIBILITY.

WYZ001-031000-
YELLOWSTONE NATIONAL PARK

CITY           SKY/WX    TMP DP  RH WIND       PRES   REMARKS
LK YELLOWSTONE   N/A     35  25  66 CALM      30.01S
W YELLOWSTONE  NOT AVBL

$$
WYZ002>013-054>058-071-098>099-031000-
NORTHERN WYOMING

CITY           SKY/WX    TMP DP  RH WIND       PRES   REMARKS
JACKSON        FAIR      45  32  61 S6        29.95S
CODY           FAIR      52  32  46 N14       29.92S
GREYBULL       FAIR      59  30  33 NW18      29.83R
WORLAND        FAIR      59  27  29 VRB6      29.85R
SHERIDAN       MOCLDY    53  34  48 NW14      29.91R
BUFFALO        CLOUDY    56  30  37 NW10      29.92S
GILLETTE       FAIR      46  33  60 N8        29.86R
HULETT         FAIR      54  28  37 E7        29.87R
NEWCASTLE      FAIR      48  32  53 N6        29.82R

$$
WYZ014>020-022>026-101>103-031000-
CENTRAL WYOMING

CITY           SKY/WX    TMP DP  RH WIND       PRES   REMARKS
BIG PINEY      MOCLDY    40  31  70 NE9       30.01F WCI  34
PINEDALE       FAIR      37  32  81 CALM      30.03S
DUBOIS         FAIR      41  28  60 CALM      29.97S
LANDER         FAIR      58  28  32 VRB3      29.89S
RIVERTON       FAIR      52  30  43 W3        29.91R
CASPER         FAIR      45  34  65 W5        29.90R
DOUGLAS        FAIR      52  38  58 W7        29.86S

$$
WYZ021-027>030-104>119-031000-
SOUTHERN WYOMING

CITY           SKY/WX    TMP DP  RH WIND       PRES   REMARKS
EVANSTON       CLOUDY    50  32  50 E6        30.03F
KEMMERER       FAIR      46  32  57 SW5       30.04S
FORT BRIDGER   MOSUNNY   50  34  53 W6        30.06S
ROCK SPRINGS   CLOUDY    45  38  76 NW7       30.02R
DIXON          FAIR      43  36  78 CALM      30.06F
RAWLINS        FAIR      51  33  50 SW16      30.00S
SARATOGA       FAIR      45  34  65 SE8       30.04R
LARAMIE        FAIR      46  33  60 SW13      29.99F
CHEYENNE       FAIR      56  32  40 W17       29.92F
TORRINGTON     FAIR      54  41  61 W6        29.81S
PINE BLUFFS    FAIR      45  41  87 S12       29.90F

$$


USA.gov is the U.S. government's official web portal to all federal, state and local government web resources and services.